Regional Weather Roundup
Issued by NWS

Home | Current Version | Previous Version | Graphics & Text | Print | Product List | Glossary On
Versions: 1 2 3 4 5 6 7 8 9 10 11 12 13 14 15 16 17 18 19 20 21 22 23 24 25 26 27 28 29 30 31 32 33 34 35 36 37 38 39 40 41 42 43 44 45 46 47 48 49 50
000
ASUS45 KSLC 260510
RWRUT

UTAH REGIONAL WEATHER ROUNDUP
NATIONAL WEATHER SERVICE SALT LAKE CITY UT
1100 PM MDT TUE APR 25 2017

UTZ001>011-023>025-260600-

NORTHERN UTAH

CITY           SKY/WX    TMP DP  RH WIND       PRES   REMARKS
BRIGHAM CITY   CLOUDY    49  36  61 S5        29.93R
HILL AFB       MOCLDY    44  36  73 SE8       29.93R
LOGAN          CLOUDY    44  37  76 E5        29.92R
OGDEN          CLOUDY    45  36  70 SE8       29.92R
SALT LAKE CITY PTCLDY    46  38  73 SE9       29.93R
TOOELE VALLEY  PTCLDY    37  34  87 S8        29.94S WCI  31
WENDOVER       MOCLDY    50  26  39 VRB6      29.93S
HEBER CITY     PTCLDY    32  28  86 CALM      29.95R
WEST JORDAN    CLOUDY    45  42  90 CALM      29.95R

$$

UTZ011>015-024>027-260600-

CENTRAL/NORTHEAST UTAH

CITY           SKY/WX    TMP DP  RH WIND       PRES   REMARKS
PROVO AIRPORT  PTCLDY    42  34  73 S3        29.97R
MOAB/CANYONLAN CLOUDY    47  27  45 N9        29.86R
DELTA          CLEAR     37  30  75 E5        29.96F WCI  34
PRICE          CLEAR     41  26  55 NW12      29.90R
RICHFIELD      CLEAR     37  27  65 CALM      30.00R
ROOSEVELT      CLEAR     43  30  61 E7        29.90R
VERNAL         CLOUDY    42  34  73 SW8       29.88R

$$

UTZ013>016-019>022-027-260600-

SOUTHERN UTAH

CITY           SKY/WX    TMP DP  RH WIND       PRES   REMARKS
BRYCE CANYON   CLEAR     31  16  54 N3        30.00R
CEDAR CITY     CLEAR     34  22  61 N7        29.98R WCI  28
MILFORD        CLEAR     38  24  57 CALM      29.97R
ST GEORGE      PTCLDY    60  21  22 CALM      29.92
HANKSVILLE     CLEAR     50  23  34 W9        29.92R
KANAB          CLEAR     39  23  52 N3        30.00R
BLANDING       CLEAR     40  24  52 CALM      29.95R

$$

REGIONAL REPORTS     COLORADO/ARIZONA

CITY           SKY/WX    TMP DP  RH WIND       PRES   REMARKS
CRAIG, CO      CLEAR     34  28  79 W7        29.87R WCI  28
GRAND JUNCTION CLOUDY    41  38  89 NW12      29.89R
RIFLE, CO      CLOUDY    40  33  76 NW6       29.87R
MONTROSE, CO   CLOUDY    39  33  79 S5        29.90R
CORTEZ, CO     CLEAR     33  27  78 E8        29.88R WCI  26
COLORADO CITY    N/A     37  23  56 NE3       29.99R
PAGE, AZ       CLEAR     55  18  23 W7        29.89R
GRAND CANYON   CLEAR     40  16  37 CALM      29.97R
KINGMAN, AZ    CLEAR     48  19  31 SE6       29.90R
FLAGSTAFF, AZ  CLEAR     36  18  48 E5        29.98R WCI  32

$$

REGIONAL REPORTS    NEVADA/IDAHO/WYOMING

CITY           SKY/WX    TMP DP  RH WIND       PRES   REMARKS
LAS VEGAS, NV  PTCLDY    70  12  10 NE7       29.86R
ELY, NY        PTCLDY    35  22  58 S7        30.00S WCI  29
ELKO, NV       CLOUDY    44  33  65 S3        29.96S
POCATELLO, ID  CLOUDY    44  30  57 S16       29.90S
BURLEY, ID     MOCLDY    43  31  62 S9        29.90S
FORT BRIDGER,    N/A     34  30  87 W12       29.95S WCI  25
EVANSTON, WY   CLOUDY    33  30  88 SW9       29.94S WCI  25
ROCK SPRINGS,  CLOUDY    33  29  85 SW6       29.90S WCI  28
KEMMERER, WY     N/A     32  30  93 NW7       29.93R WCI  26

$$



USA.gov is the U.S. government's official web portal to all federal, state and local government web resources and services.